[[{"header":{"parameterUnit":"m.s-1","parameterCategory":2,"la1":30.2992,"la2":30.254,"lo1":-89.0895,"lo2":-89.0443,"dy":0.0025,"dx":0.0025,"nx":19,"ny":19,"refTime":"2026-05-13T09:00:00:Z","depth":"0","parameterNumber":2,"parameterNumberName":"U-component_of_CURRENTS"},"data":[0,0,0,-0.1554,-0.1552,-0.1444,-0.1443,-0.1328,-0.1327,0,0,0,0,0,0,0,0,0,0,0,-0.1592,-0.1591,-0.1554,-0.1551,-0.1444,-0.1443,-0.1328,-0.1327,0,0,0,0,0,0,0,0,0,0,0,-0.1592,-0.1591,-0.1591,-0.1551,-0.1444,-0.1443,-0.1328,-0.1402,0,0,0,0,0,0,0,0,0,0,-0.1503,-0.1554,-0.1592,-0.1591,-0.155,-0.1444,-0.1443,-0.1405,-0.1397,-0.1386,0,-0.1372,0,-0.135,-0.1321,-0.132,0,0,0,-0.1543,-0.1561,-0.1517,-0.1591,-0.155,-0.1444,-0.149,-0.1401,-0.1392,-0.1376,-0.1371,-0.1366,-0.1349,-0.132,-0.1319,-0.1325,-0.1326,0,0,-0.1549,-0.1584,-0.1523,-0.1511,-0.1526,-0.1493,-0.1487,-0.1395,-0.1397,-0.137,-0.1363,-0.1347,-0.1319,-0.1319,-0.1324,-0.1325,0,0,0,-0.1572,-0.1589,-0.1547,-0.1517,-0.1497,-0.149,-0.1483,-0.1401,-0.1383,-0.1362,-0.1345,-0.1319,-0.1318,-0.1323,-0.1325,-0.1374,0,0,0,-0.1575,-0.1602,-0.155,-0.1571,-0.1499,-0.1449,-0.1492,-0.1389,-0.1378,-0.1346,-0.1319,-0.1317,-0.1323,-0.1324,-0.1371,-0.1387,0,0,0,-0.1596,-0.1605,-0.159,-0.1573,-0.1528,-0.1449,-0.1426,-0.1386,-0.1369,-0.132,-0.1316,-0.1322,-0.1324,-0.1368,-0.1382,-0.1402,0,0,0,-0.1638,-0.1629,-0.1591,-0.1581,-0.1529,-0.1497,-0.1426,-0.1398,-0.1365,-0.1318,-0.1323,-0.1324,-0.1367,-0.1379,-0.14,-0.1532,-0.1555,0,0,-0.165,-0.1632,-0.1625,-0.1588,-0.1565,-0.1511,-0.1506,-0.1429,-0.139,-0.135,-0.135,-0.1372,-0.1382,-0.1402,-0.1639,-0.1658,0,0,0,-0.1644,-0.1632,-0.1624,-0.1596,-0.1568,-0.1548,-0.1485,-0.1467,-0.143,-0.1379,-0.1396,-0.1401,-0.1411,-0.1487,-0.1503,-0.1438,-0.1333,-0.1333,-0.1333,-0.1675,-0.1649,-0.1642,-0.161,-0.1603,-0.1572,-0.1562,-0.1528,-0.1481,-0.1491,-0.1459,-0.1533,-0.1617,-0.163,-0.1561,-0.1483,-0.1483,-0.1483,-0.1483,-0.1678,-0.1654,-0.165,-0.1635,-0.1624,-0.1619,-0.1606,-0.1585,-0.1577,-0.1537,-0.1545,-0.1559,-0.165,-0.1571,-0.1487,-0.1486,-0.1486,-0.1485,-0.1485,-0.1669,-0.1654,-0.1658,-0.1647,-0.1644,-0.1634,-0.1646,-0.1629,-0.1617,-0.1629,-0.1691,-0.1691,-0.1603,-0.1624,-0.1624,-0.1625,-0.1625,-0.1625,-0.1625,-0.1649,-0.1652,-0.1653,-0.165,-0.1641,-0.1642,-0.1662,-0.1685,-0.1742,-0.176,-0.1761,-0.1645,-0.1575,-0.1548,-0.1628,-0.1627,-0.1627,-0.1627,-0.1626,-0.1586,-0.162,-0.1618,-0.162,-0.1623,-0.1637,-0.1694,-0.1845,-0.1879,-0.1946,-0.185,-0.1832,-0.1823,-0.1812,-0.1792,-0.1929,-0.1929,-0.1929,-0.1929,-0.1551,-0.1565,-0.1577,-0.1585,-0.1602,-0.1631,-0.1763,-0.1918,-0.2008,-0.2017,-0.1934,-0.1928,-0.1919,-0.1912,-0.1898,-0.1877,-0.2034,-0.2033,-0.2033,-0.1506,-0.1529,-0.1518,-0.1558,-0.1585,-0.1636,-0.1745,-0.1863,-0.2009,-0.2022,-0.1813,-0.1808,-0.1778,-0.1768,-0.1736,-0.1723,-0.1681,0,0]},{"header":{"parameterUnit":"m.s-1","parameterCategory":2,"la1":30.2992,"la2":30.254,"lo1":-89.0895,"lo2":-89.0443,"dy":0.0025,"dx":0.0025,"nx":19,"ny":19,"refTime":"2026-05-13T09:00:00:Z","depth":"0","parameterNumber":3,"parameterNumberName":"V-component_of_CURRENTS"},"data":[0,0,0,-0.0271,-0.0273,-0.0355,-0.0356,-0.043,-0.043,0,0,0,0,0,0,0,0,0,0,0,-0.0238,-0.0238,-0.0271,-0.0273,-0.0355,-0.0356,-0.043,-0.043,0,0,0,0,0,0,0,0,0,0,0,-0.0237,-0.0238,-0.0239,-0.0273,-0.0355,-0.0356,-0.0429,-0.0374,0,0,0,0,0,0,0,0,0,0,-0.0298,-0.0265,-0.0238,-0.0239,-0.0274,-0.0355,-0.0356,-0.0372,-0.0378,-0.0384,0,-0.0398,0,-0.0419,-0.0435,-0.0435,0,0,0,-0.027,-0.026,-0.0292,-0.0239,-0.0274,-0.0355,-0.0317,-0.0375,-0.0382,-0.0392,-0.04,-0.0403,-0.042,-0.0435,-0.0435,-0.0481,-0.0481,0,0,-0.0266,-0.0244,-0.0287,-0.0296,-0.0298,-0.0315,-0.032,-0.038,-0.0381,-0.04,-0.0405,-0.0422,-0.0436,-0.0436,-0.0481,-0.0481,0,0,0,-0.0254,-0.024,-0.0271,-0.0292,-0.0312,-0.0317,-0.0323,-0.0378,-0.0391,-0.0406,-0.0422,-0.0436,-0.0437,-0.0481,-0.0481,-0.0477,0,0,0,-0.0252,-0.0234,-0.0269,-0.0255,-0.0311,-0.0349,-0.032,-0.0387,-0.0394,-0.0422,-0.0436,-0.0437,-0.0481,-0.0481,-0.0477,-0.0477,0,0,0,-0.0234,-0.0232,-0.0244,-0.0254,-0.0293,-0.0348,-0.0365,-0.0389,-0.0405,-0.0435,-0.0438,-0.0481,-0.0481,-0.0477,-0.0477,-0.0455,0,0,0,-0.0205,-0.0234,-0.0244,-0.0277,-0.0292,-0.0352,-0.0364,-0.0403,-0.0429,-0.0436,-0.0481,-0.0481,-0.0477,-0.0477,-0.0455,-0.0439,-0.0436,0,0,-0.0229,-0.0236,-0.0256,-0.0268,-0.0329,-0.034,-0.0386,-0.042,-0.0429,-0.0459,-0.046,-0.0477,-0.0477,-0.0455,-0.0439,-0.0435,0,0,0,-0.0256,-0.0277,-0.0296,-0.033,-0.0365,-0.0394,-0.0425,-0.0428,-0.0449,-0.0446,-0.0478,-0.0478,-0.0464,-0.0456,-0.0453,-0.026,-0.0481,-0.0481,-0.0481,-0.0265,-0.0292,-0.0337,-0.0377,-0.0403,-0.0433,-0.0444,-0.0452,-0.0462,-0.0459,-0.0476,-0.0458,-0.045,-0.0447,-0.0249,-0.0476,-0.0476,-0.0476,-0.0476,-0.032,-0.0354,-0.0372,-0.0427,-0.0441,-0.0469,-0.0473,-0.0467,-0.0461,-0.047,-0.0456,-0.0453,-0.0444,-0.0233,-0.0476,-0.0476,-0.0476,-0.0476,-0.0476,-0.0339,-0.0362,-0.0389,-0.0451,-0.0478,-0.0492,-0.0507,-0.0489,-0.046,-0.0451,-0.0428,-0.0427,-0.024,-0.0438,-0.0438,-0.0438,-0.0438,-0.0438,-0.0438,-0.0351,-0.0384,-0.043,-0.0481,-0.0512,-0.0535,-0.0521,-0.0503,-0.0447,-0.0421,-0.0421,-0.0206,-0.0447,-0.0446,-0.0436,-0.0437,-0.0437,-0.0437,-0.0437,-0.0407,-0.0397,-0.0478,-0.0517,-0.0594,-0.0652,-0.0605,-0.0542,-0.0478,-0.0442,-0.0144,-0.0399,-0.0395,-0.0398,-0.0395,-0.0373,-0.0373,-0.0373,-0.0373,-0.0421,-0.0429,-0.0534,-0.0614,-0.0684,-0.0718,-0.0741,-0.0609,-0.0289,-0.0084,-0.0006,0.0018,0.0007,0.0036,0.0025,0.0036,0.0167,0.0169,0.0169,-0.0458,-0.0484,-0.0569,-0.0652,-0.0742,-0.0807,-0.0848,-0.0665,-0.0089,0.0213,0.0267,0.0243,0.0299,0.0265,0.0322,0.029,0.0311,0,0]}],[{"header":{"parameterUnit":"m.s-1","parameterCategory":2,"la1":30.2992,"la2":30.254,"lo1":-89.0895,"lo2":-89.0443,"dy":0.0025,"dx":0.0025,"nx":19,"ny":19,"refTime":"2026-05-13T09:00:00:Z","depth":"2","parameterNumber":2,"parameterNumberName":"U-component_of_CURRENTS"},"data":[0,0,0,-0.0994,-0.0995,-0.1031,-0.1031,-0.1104,-0.1105,0,0,0,0,0,0,0,0,0,0,0,-0.0966,-0.0966,-0.0994,-0.0995,-0.1031,-0.1031,-0.1104,-0.1105,0,0,0,0,0,0,0,0,0,0,0,-0.0966,-0.0966,-0.0966,-0.0995,-0.1031,-0.1031,-0.1104,-0.1069,0,0,0,0,0,0,0,0,0,0,-0.1031,-0.1006,-0.0966,-0.0966,-0.0996,-0.1031,-0.1031,-0.1067,-0.1072,-0.1097,0,-0.1092,0,-0.111,-0.1111,-0.1111,0,0,0,-0.0992,-0.1003,-0.1012,-0.0966,-0.0996,-0.1031,-0.1014,-0.1069,-0.1074,-0.1103,-0.1093,-0.1097,-0.1111,-0.1111,-0.1112,-0.1244,-0.1245,0,0,-0.099,-0.0978,-0.1008,-0.1014,-0.0993,-0.1013,-0.1015,-0.1072,-0.1073,-0.1094,-0.1099,-0.1113,-0.1112,-0.1113,-0.1243,-0.1244,0,0,0,-0.0987,-0.0976,-0.0983,-0.1011,-0.1021,-0.1014,-0.1016,-0.107,-0.1072,-0.1099,-0.1113,-0.1113,-0.1114,-0.1242,-0.1244,-0.1229,0,0,0,-0.0985,-0.0975,-0.0982,-0.0976,-0.1019,-0.1045,-0.1013,-0.1067,-0.1075,-0.1113,-0.1113,-0.1114,-0.1242,-0.1243,-0.1227,-0.1226,0,0,0,-0.0967,-0.0974,-0.0973,-0.0975,-0.0994,-0.1044,-0.1048,-0.1069,-0.1084,-0.1111,-0.1115,-0.1241,-0.1243,-0.1226,-0.1224,-0.1276,0,0,0,-0.096,-0.0967,-0.0972,-0.0997,-0.0994,-0.1067,-0.1048,-0.109,-0.1115,-0.1113,-0.1242,-0.1244,-0.1225,-0.1223,-0.1274,-0.1376,-0.1392,0,0,-0.097,-0.0968,-0.0988,-0.0994,-0.1056,-0.1062,-0.1142,-0.115,-0.1156,-0.1222,-0.1225,-0.1228,-0.1224,-0.1275,-0.1484,-0.1497,0,0,0,-0.0994,-0.0995,-0.1022,-0.1052,-0.1108,-0.1156,-0.1183,-0.1204,-0.1232,-0.118,-0.1271,-0.127,-0.1302,-0.1361,-0.1372,-0.1253,-0.1252,-0.1252,-0.1252,-0.099,-0.1018,-0.1051,-0.1094,-0.1146,-0.1224,-0.1266,-0.13,-0.1292,-0.1305,-0.1289,-0.1361,-0.1425,-0.1435,-0.1323,-0.1323,-0.1323,-0.1323,-0.1323,-0.0998,-0.1005,-0.1051,-0.108,-0.115,-0.1208,-0.132,-0.1324,-0.1385,-0.1349,-0.138,-0.1382,-0.1446,-0.1323,-0.1323,-0.1323,-0.1323,-0.1323,-0.1323,-0.0979,-0.0979,-0.0993,-0.1033,-0.1087,-0.1175,-0.1271,-0.1321,-0.1369,-0.1393,-0.1473,-0.1474,-0.1344,-0.1396,-0.1396,-0.1396,-0.1396,-0.1397,-0.1397,-0.0937,-0.0955,-0.0949,-0.0989,-0.1009,-0.1082,-0.1229,-0.1322,-0.1445,-0.1488,-0.149,-0.1387,-0.1384,-0.1352,-0.14,-0.14,-0.1399,-0.1399,-0.1399,-0.0881,-0.089,-0.0887,-0.0897,-0.0976,-0.1087,-0.1235,-0.15,-0.1585,-0.1681,-0.1574,-0.1569,-0.1592,-0.1585,-0.156,-0.1659,-0.1659,-0.1659,-0.1659,-0.0833,-0.0843,-0.0837,-0.0869,-0.0961,-0.1098,-0.132,-0.1405,-0.1539,-0.148,-0.1486,-0.1453,-0.1451,-0.1461,-0.1457,-0.1427,-0.1491,-0.149,-0.1489,-0.0785,-0.0794,-0.0781,-0.0837,-0.0954,-0.1141,-0.13,-0.1302,-0.1332,-0.1463,-0.126,-0.1686,-0.1658,-0.1645,-0.1677,-0.1664,-0.1622,0,0]},{"header":{"parameterUnit":"m.s-1","parameterCategory":2,"la1":30.2992,"la2":30.254,"lo1":-89.0895,"lo2":-89.0443,"dy":0.0025,"dx":0.0025,"nx":19,"ny":19,"refTime":"2026-05-13T09:00:00:Z","depth":"2","parameterNumber":3,"parameterNumberName":"V-component_of_CURRENTS"},"data":[0,0,0,0.0233,0.0231,0.0185,0.0185,0.0179,0.0179,0,0,0,0,0,0,0,0,0,0,0,0.0247,0.0246,0.0233,0.0231,0.0185,0.0185,0.0179,0.0179,0,0,0,0,0,0,0,0,0,0,0,0.0247,0.0246,0.0245,0.0231,0.0185,0.0185,0.0179,0.0204,0,0,0,0,0,0,0,0,0,0,0.0243,0.0258,0.0246,0.0245,0.0231,0.0185,0.0185,0.0205,0.0202,0.0212,0,0.0191,0,0.0181,0.0179,0.0179,0,0,0,0.0243,0.026,0.0231,0.0245,0.023,0.0185,0.0209,0.0203,0.0201,0.0209,0.0191,0.019,0.0181,0.0179,0.0179,0.0138,0.0137,0,0,0.0246,0.0259,0.0232,0.0229,0.0201,0.0211,0.0208,0.0201,0.0202,0.019,0.019,0.0181,0.0179,0.0179,0.0138,0.0137,0,0,0,0.0245,0.0261,0.0232,0.0229,0.0214,0.0209,0.0206,0.0203,0.0188,0.0189,0.0181,0.0179,0.0179,0.0138,0.0138,0.0078,0,0,0,0.0247,0.0259,0.0232,0.0243,0.0214,0.0204,0.0208,0.0188,0.0187,0.0181,0.0179,0.0179,0.0139,0.0138,0.0081,0.0046,0,0,0,0.0252,0.0261,0.0245,0.0243,0.0216,0.0204,0.0189,0.0188,0.0182,0.0179,0.0179,0.0139,0.0138,0.0083,0.0051,0.0058,0,0,0,0.0281,0.0249,0.0246,0.0206,0.0216,0.0169,0.0189,0.0168,0.0163,0.0179,0.0139,0.0138,0.0084,0.0053,0.006,0.0125,0.012,0,0,0.0255,0.0247,0.022,0.0215,0.0147,0.0177,0.013,0.0134,0.0152,0.0148,0.0147,0.008,0.0051,0.0058,0.0066,0.0064,0,0,0,0.0221,0.0192,0.0174,0.0132,0.011,0.0081,0.0095,0.0106,0.0094,0.014,0.0076,0.0059,0.0066,0.0109,0.0107,0.0133,0.0133,0.0133,0.0133,0.0191,0.016,0.0102,0.0056,0.0031,0.002,0.0011,0.0024,0.0053,0.004,0.0008,-0.0034,0.001,0.001,0.001,0.001,0.001,0.001,0.0009,0.0119,0.0067,0.0035,-0.0032,-0.0061,-0.0092,-0.0086,-0.0067,-0.0065,-0.0042,-0.0032,0.004,0.0004,0.0005,0.0005,0.0006,0.0007,0.0007,0.0007,0.0077,0.0045,0.0011,-0.008,-0.0148,-0.0169,-0.0216,-0.019,-0.013,-0.0138,-0.0053,-0.0051,-0.0055,-0.0124,-0.0124,-0.0124,-0.0124,-0.0124,-0.0124,0.0043,0.0006,-0.0058,-0.0138,-0.0205,-0.0273,-0.0291,-0.0271,-0.0183,-0.0118,-0.0116,-0.0078,-0.0074,-0.0061,-0.0126,-0.0126,-0.0126,-0.0126,-0.0125,-0.0048,-0.0027,-0.0128,-0.0194,-0.0339,-0.0442,-0.0419,-0.0334,-0.026,-0.0189,-0.0082,-0.0082,-0.0049,-0.0045,-0.0032,-0.0085,-0.0085,-0.0085,-0.0085,-0.0087,-0.009,-0.0215,-0.033,-0.0458,-0.0534,-0.0586,-0.0468,-0.0261,-0.0149,-0.0147,-0.0121,-0.0119,-0.0088,-0.0084,-0.0071,-0.0135,-0.0136,-0.0136,-0.0151,-0.017,-0.0279,-0.0375,-0.0533,-0.0641,-0.0712,-0.0561,-0.0241,-0.0146,-0.0242,-0.0072,-0.0023,-0.0025,0.0033,0.0036,0.0062,0,0]}],[{"header":{"parameterUnit":"m.s-1","parameterCategory":2,"la1":30.2992,"la2":30.254,"lo1":-89.0895,"lo2":-89.0443,"dy":0.0025,"dx":0.0025,"nx":19,"ny":19,"refTime":"2026-05-13T09:00:00:Z","depth":"4","parameterNumber":2,"parameterNumberName":"U-component_of_CURRENTS"},"data":[0,0,0,-0.0862,-0.0863,-0.0989,-0.099,-0.1178,-0.1179,0,0,0,0,0,0,0,0,0,0,0,-0.0833,-0.0834,-0.0861,-0.0863,-0.0989,-0.099,-0.1177,-0.1179,0,0,0,0,0,0,0,0,0,0,0,-0.0833,-0.0834,-0.0834,-0.0864,-0.0989,-0.099,-0.1177,-0.1083,0,0,0,0,0,0,0,0,0,0,-0.0961,-0.0922,-0.0833,-0.0834,-0.0864,-0.0989,-0.099,-0.1079,-0.1089,-0.1118,0,-0.1129,0,-0.1138,-0.1189,-0.119,0,0,0,-0.0896,-0.0913,-0.0936,-0.0834,-0.0865,-0.0988,-0.0942,-0.1085,-0.1096,-0.1132,-0.1131,-0.1138,-0.1141,-0.119,-0.1191,-0.1607,-0.161,0,0,-0.0889,-0.0872,-0.0927,-0.0942,-0.0887,-0.0937,-0.0945,-0.1092,-0.1106,-0.1132,-0.1142,-0.1144,-0.1191,-0.1192,-0.1604,-0.1608,0,0,0,-0.0847,-0.0867,-0.0887,-0.0935,-0.0945,-0.094,-0.0949,-0.1101,-0.1104,-0.1144,-0.1146,-0.1192,-0.1194,-0.16,-0.1605,-0.1538,0,0,0,-0.0844,-0.084,-0.0884,-0.0878,-0.0941,-0.102,-0.0955,-0.1094,-0.111,-0.1145,-0.1192,-0.1195,-0.1596,-0.1603,-0.1531,-0.1512,0,0,0,-0.0829,-0.0839,-0.0847,-0.0876,-0.0913,-0.1017,-0.1031,-0.1099,-0.111,-0.119,-0.1196,-0.1593,-0.1601,-0.1525,-0.1505,-0.1459,0,0,0,-0.0817,-0.0829,-0.0847,-0.0881,-0.0911,-0.1002,-0.1031,-0.1156,-0.1236,-0.1193,-0.1597,-0.1605,-0.1524,-0.15,-0.1456,-0.1073,0,0,0,-0.0821,-0.0829,-0.0852,-0.0871,-0.0918,-0.0988,-0.1117,-0.1255,-0.1382,-0.1545,-0.1555,-0.1533,-0.1504,-0.1458,-0.1563,0,0,0,0,-0.0848,-0.0846,-0.0876,-0.0905,-0.0981,-0.1095,-0.1201,-0.1315,-0.1565,-0.1458,-0.172,-0.1708,-0.1675,-0.1458,-0.1644,-0.1643,-0.1642,-0.1641,-0.1641,-0.0811,-0.0844,-0.0878,-0.0924,-0.1005,-0.1202,-0.1331,-0.1543,-0.1605,-0.1785,-0.1788,-0.1904,-0.1693,-0.1944,-0.1944,-0.1944,-0.1944,-0.1944,-0.1944,-0.0785,-0.0802,-0.0873,-0.091,-0.105,-0.1206,-0.1494,-0.162,-0.1812,-0.191,-0.1879,-0.1579,-0.1942,-0.1942,-0.1942,-0.1942,-0.1943,-0.1943,-0.1943,-0.0752,-0.0761,-0.0788,-0.0848,-0.1059,-0.1296,-0.1473,-0.1744,-0.1837,-0.1846,-0.1635,-0.1882,-0.1722,-0.1849,-0.1849,-0.1849,-0.1849,-0.1849,-0.1849,-0.0698,-0.0726,-0.072,-0.0828,-0.0899,-0.114,-0.1499,-0.1498,-0.1678,-0.1581,-0.1868,-0.1872,-0.1875,-0.1726,-0.1846,-0.1846,-0.1846,-0.1847,-0.1847,-0.0617,-0.0654,-0.0626,-0.0629,-0.0733,-0.0882,-0.1175,-0.1222,-0.1154,-0.108,-0.1398,-0.1421,-0.1392,-0.1407,-0.1236,-0.1215,-0.121,-0.1205,0,-0.0567,-0.0585,-0.0546,-0.0518,-0.0488,-0.0732,-0.0564,-0.0641,-0.088,-0.0928,-0.1122,-0.1488,-0.1503,-0.1475,-0.148,-0.1284,0,0,0,-0.0498,-0.051,-0.0464,-0.0466,-0.0417,-0.0445,-0.0557,-0.0563,-0.0883,-0.0693,-0.1089,-0.112,-0.1307,-0.1836,-0.1847,-0.1851,-0.161,0,0]},{"header":{"parameterUnit":"m.s-1","parameterCategory":2,"la1":30.2992,"la2":30.254,"lo1":-89.0895,"lo2":-89.0443,"dy":0.0025,"dx":0.0025,"nx":19,"ny":19,"refTime":"2026-05-13T09:00:00:Z","depth":"4","parameterNumber":3,"parameterNumberName":"V-component_of_CURRENTS"},"data":[0,0,0,0.0115,0.0115,0.0134,0.0134,0.008,0.0079,0,0,0,0,0,0,0,0,0,0,0,0.0108,0.0108,0.0115,0.0115,0.0134,0.0134,0.008,0.0079,0,0,0,0,0,0,0,0,0,0,0,0.0108,0.0108,0.0108,0.0115,0.0134,0.0134,0.008,0.0087,0,0,0,0,0,0,0,0,0,0,0.0079,0.0077,0.0108,0.0108,0.0115,0.0134,0.0134,0.0088,0.0086,0.0048,0,0.0049,0,0.0058,0.0074,0.0073,0,0,0,0.012,0.0079,0.0087,0.0108,0.0115,0.0134,0.0127,0.0088,0.0086,0.0045,0.0049,0.0047,0.0057,0.0073,0.0073,0.0119,0.012,0,0,0.0119,0.0106,0.0089,0.0086,0.0116,0.0126,0.0127,0.0087,0.0079,0.0049,0.0047,0.0056,0.0072,0.0072,0.0118,0.012,0,0,0,0.0112,0.0105,0.0117,0.0088,0.0094,0.0126,0.0128,0.0081,0.0086,0.0046,0.0056,0.0072,0.0071,0.0117,0.0119,0.0042,0,0,0,0.0112,0.0102,0.0116,0.0108,0.0096,0.0097,0.0122,0.0089,0.0085,0.0056,0.0072,0.007,0.0116,0.0118,0.0041,-0.0049,0,0,0,0.0108,0.0101,0.0104,0.0108,0.0115,0.0098,0.0102,0.0089,0.009,0.0073,0.007,0.0115,0.0117,0.0041,-0.0047,-0.0044,0,0,0,0.0095,0.0062,0.0103,0.005,0.0114,0.0059,0.0102,0.0087,0.0072,0.0071,0.0116,0.0119,0.0041,-0.0046,-0.0043,-0.0118,0,0,0,0.0039,0.0055,0.0017,0.0054,-0.0022,0.0057,-0.0009,0.0019,0.0111,0.012,0.0122,0.0042,-0.0047,-0.0044,0.005,0,0,0,0,-0.0012,-0.0034,-0.0053,-0.0084,-0.0098,-0.0108,-0.0071,-0.0008,0.0097,0.0117,0.0121,0.0068,0.0071,0.0036,0.0132,0.0132,0.0131,0.0131,0.0131,-0.0074,-0.0101,-0.0176,-0.0214,-0.0249,-0.0209,-0.0185,-0.007,0.0009,0.0108,0.0066,0.0089,0.006,0.0168,0.0167,0.0167,0.0167,0.0167,0.0167,-0.0165,-0.0213,-0.0259,-0.0338,-0.0353,-0.0384,-0.0291,-0.0179,-0.0057,0.0048,0.0059,0.0034,0.0161,0.0162,0.0163,0.0164,0.0164,0.0164,0.0165,-0.0195,-0.0227,-0.0276,-0.0385,-0.0448,-0.044,-0.0419,-0.0276,-0.0125,-0.0103,-0.0048,0.0044,-0.002,-0.0031,-0.0031,-0.0031,-0.0032,-0.0032,-0.0032,-0.0196,-0.0253,-0.0326,-0.0434,-0.0488,-0.0512,-0.0453,-0.0413,-0.0257,-0.0165,-0.0085,0.0023,0.0029,-0.0028,-0.0038,-0.0037,-0.0036,-0.0035,-0.0035,-0.0232,-0.0247,-0.035,-0.0416,-0.0543,-0.0567,-0.0542,-0.0488,-0.0431,-0.0378,-0.0187,-0.0178,-0.0167,-0.0156,-0.022,-0.0287,-0.0289,-0.029,0,-0.0236,-0.0259,-0.0382,-0.0477,-0.0558,-0.0596,-0.0577,-0.056,-0.043,-0.0375,-0.0397,-0.0179,-0.0172,-0.0157,-0.0149,-0.0223,0,0,0,-0.0256,-0.0294,-0.0374,-0.0481,-0.0574,-0.0569,-0.0571,-0.0549,-0.0422,-0.049,-0.0317,-0.031,-0.0283,-0.0054,-0.0015,-0.0007,-0.0097,0,0]}]]